| time (UTC) | temp C | wind direction | speed KPH | gust KPH | rain 1hr cm | rain 24hr cm | rain mn cm | humidity % | barometer mb |
| 20260510094506 | 16 | 83 | 0.0 | 0.0 | 0.00 | 0.00 | 0.00 | 40 | 1009.5 |
| 20260510093039 | 16 | 83 | 0.0 | 0.0 | 0.00 | 0.00 | 0.00 | 42 | 1009.4 |
| 20260510091524 | 16 | 83 | 0.0 | 0.0 | 0.00 | 0.00 | 0.00 | 48 | 1009.1 |
| 20260510090051 | 16 | 83 | 0.0 | 0.0 | 0.00 | 0.00 | 0.00 | 50 | 1009.1 |
| 20260510084540 | 16 | 83 | 0.0 | 0.0 | 0.00 | 0.00 | 0.00 | 52 | 1009.1 |
| 20260510083111 | 16 | 83 | 0.0 | 0.0 | 0.00 | 0.00 | 0.00 | 49 | 1009.0 |
| 20260510081521 | 16 | 83 | 0.0 | 0.0 | 0.00 | 0.00 | 0.00 | 58 | 1008.6 |
| 20260510080036 | 17 | 83 | 0.0 | 0.0 | 0.00 | 0.00 | 0.00 | 58 | 1008.5 |
| 20260510074507 | 17 | 83 | 0.0 | 0.0 | 0.00 | 0.00 | 0.00 | 52 | 1008.5 |
| 20260510073050 | 17 | 83 | 0.0 | 0.0 | 0.00 | 0.00 | 0.00 | 46 | 1008.3 |
| 20260510071522 | 17 | 83 | 0.0 | 0.0 | 0.00 | 0.00 | 0.00 | 66 | 1008.4 |
| 20260510070049 | 17 | 83 | 0.0 | 1.6 | 0.00 | 0.00 | 0.00 | 68 | 1008.7 |
| 20260510064515 | 18 | 83 | 0.0 | 0.0 | 0.00 | 0.00 | 0.00 | 68 | 1008.3 |
| 20260510063037 | 18 | 83 | 0.0 | 0.0 | 0.00 | 0.00 | 0.00 | 65 | 1008.3 |
| 20260510061511 | 18 | 83 | 0.0 | 1.6 | 0.00 | 0.00 | 0.00 | 69 | 1008.5 |
| 20260510060035 | 18 | 83 | 0.0 | 1.6 | 0.00 | 0.00 | 0.00 | 68 | 1008.6 |
| 20260510054547 | 18 | 83 | 1.6 | 3.2 | 0.00 | 0.00 | 0.00 | 70 | 1008.5 |
| 20260510053006 | 18 | 83 | 0.0 | 1.6 | 0.00 | 0.00 | 0.00 | 73 | 1008.3 |
| 20260510051541 | 18 | 83 | 0.0 | 0.0 | 0.00 | 0.00 | 0.00 | 74 | 1008.2 |
| 20260510050057 | 18 | 83 | 0.0 | 1.6 | 0.00 | 0.00 | 0.00 | 75 | 1008.1 |
| 20260510044527 | 19 | 83 | 0.0 | 3.2 | 0.00 | 0.00 | 0.00 | 74 | 1008.0 |
| 20260510043100 | 20 | 83 | 1.6 | 6.4 | 0.00 | 0.00 | 0.00 | 73 | 1007.9 |
| 20260510041534 | 20 | 84 | 0.0 | 4.8 | 0.00 | 0.00 | 0.00 | 73 | 1007.8 |
| 20260510040048 | 20 | 80 | 1.6 | 4.8 | 0.00 | 0.00 | 0.00 | 72 | 1007.8 |
| 20260510034515 | 20 | 79 | 1.6 | 4.8 | 0.00 | 0.00 | 0.00 | 72 | 1007.8 |
| 20260510033034 | 20 | 78 | 1.6 | 6.4 | 0.00 | 0.00 | 0.00 | 71 | 1007.8 |
| 20260510031606 | 20 | 76 | 1.6 | 4.8 | 0.00 | 0.00 | 0.00 | 70 | 1007.6 |
| 20260510030038 | 20 | 76 | 0.0 | 3.2 | 0.00 | 0.00 | 0.00 | 70 | 1007.4 |
| 20260510024555 | 21 | 76 | 0.0 | 3.2 | 0.00 | 0.00 | 0.00 | 69 | 1007.2 |
| 20260510023021 | 21 | 76 | 3.2 | 6.4 | 0.00 | 0.00 | 0.00 | 67 | 1007.0 |
| 20260510021543 | 21 | 76 | 0.0 | 3.2 | 0.00 | 0.00 | 0.00 | 66 | 1006.9 |
| 20260510020016 | 22 | 76 | 0.0 | 6.4 | 0.00 | 0.00 | 0.00 | 65 | 1006.8 |
| 20260510014536 | 22 | 77 | 1.6 | 11.3 | 0.00 | 0.00 | 0.00 | 64 | 1006.6 |
| 20260510013004 | 22 | 86 | 1.6 | 6.4 | 0.00 | 0.00 | 0.00 | 63 | 1006.4 |
| 20260510011527 | 22 | 86 | 1.6 | 6.4 | 0.00 | 0.00 | 0.00 | 63 | 1006.3 |
| 20260510010009 | 23 | 86 | 0.0 | 3.2 | 0.00 | 0.00 | 0.00 | 62 | 1006.1 |
| 20260510004540 | 23 | 86 | 0.0 | 3.2 | 0.00 | 0.00 | 0.00 | 61 | 1006.0 |
| 20260510003019 | 24 | 86 | 0.0 | 1.6 | 0.00 | 0.00 | 0.00 | 61 | 1005.9 |
| 20260510001548 | 25 | 86 | 0.0 | 3.2 | 0.00 | 0.00 | 0.00 | 59 | 1005.7 |
| 20260510000012 | 25 | 86 | 3.2 | 4.8 | 0.00 | 0.00 | 0.00 | 56 | 1005.7 |
| 20260509234539 | 25 | 86 | 1.6 | 6.4 | 0.00 | 0.00 | 0.00 | 55 | 1005.6 |
| 20260509233004 | 26 | 86 | 1.6 | 6.4 | 0.00 | 0.00 | 0.00 | 56 | 1005.5 |
| 20260509231536 | 26 | 87 | 1.6 | 9.7 | 0.00 | 0.00 | 0.00 | 56 | 1005.4 |
| 20260509230012 | 26 | 110 | 1.6 | 6.4 | 0.00 | 0.00 | 0.00 | 54 | 1005.3 |
| 20260509224554 | 26 | 123 | 1.6 | 8.0 | 0.00 | 0.00 | 0.00 | 50 | 1005.2 |
| 20260509223020 | 26 | 107 | 1.6 | 6.4 | 0.00 | 0.00 | 0.00 | 45 | 1005.2 |
| 20260509221538 | 27 | 74 | 0.0 | 8.0 | 0.00 | 0.00 | 0.00 | 44 | 1005.1 |
| 20260509220013 | 27 | 119 | 1.6 | 6.4 | 0.00 | 0.00 | 0.00 | 44 | 1004.9 |
| 20260509214534 | 27 | 98 | 1.6 | 4.8 | 0.00 | 0.00 | 0.00 | 46 | 1004.9 |
| 20260509213004 | 27 | 96 | 1.6 | 9.7 | 0.00 | 0.00 | 0.00 | 43 | 1004.9 |
| 20260509211522 | 27 | 173 | 1.6 | 6.4 | 0.00 | 0.00 | 0.00 | 41 | 1005.1 |
| 20260509210105 | 27 | 121 | 1.6 | 6.4 | 0.00 | 0.00 | 0.00 | 43 | 1005.1 |
| 20260509204524 | 27 | 94 | 3.2 | 8.0 | 0.00 | 0.00 | 0.00 | 42 | 1005.4 |
| 20260509203056 | 27 | 98 | 0.0 | 9.7 | 0.00 | 0.00 | 0.00 | 43 | 1005.5 |
| 20260509201532 | 27 | 146 | 1.6 | 9.7 | 0.00 | 0.00 | 0.00 | 45 | 1005.8 |
| 20260509200004 | 26 | 91 | 3.2 | 11.3 | 0.00 | 0.00 | 0.00 | 46 | 1006.0 |
| 20260509194532 | 26 | 182 | 6.4 | 9.7 | 0.00 | 0.00 | 0.00 | 44 | 1006.1 |
| 20260509193059 | 27 | 80 | 3.2 | 9.7 | 0.00 | 0.00 | 0.00 | 48 | 1006.0 |
| 20260509191526 | 27 | 131 | 4.8 | 11.3 | 0.00 | 0.00 | 0.00 | 50 | 1006.0 |
| 20260509190055 | 28 | 113 | 3.2 | 6.4 | 0.00 | 0.00 | 0.00 | 46 | 1006.2 |
| 20260509184515 | 28 | 334 | 1.6 | 8.0 | 0.00 | 0.00 | 0.00 | 47 | 1006.2 |
| 20260509183056 | 28 | 82 | 3.2 | 9.7 | 0.00 | 0.00 | 0.00 | 48 | 1006.2 |
| 20260509181515 | 28 | 126 | 3.2 | 8.0 | 0.00 | 0.00 | 0.00 | 47 | 1006.5 |
| 20260509180035 | 28 | 72 | 3.2 | 6.4 | 0.00 | 0.00 | 0.00 | 52 | 1006.4 |
| 20260509174556 | 28 | 166 | 0.0 | 8.0 | 0.00 | 0.00 | 0.00 | 49 | 1006.6 |
| 20260509173015 | 28 | 92 | 1.6 | 6.4 | 0.00 | 0.00 | 0.00 | 56 | 1006.7 |
| 20260509171540 | 27 | 101 | 1.6 | 8.0 | 0.00 | 0.00 | 0.00 | 53 | 1006.8 |
| 20260509170010 | 28 | 49 | 1.6 | 6.4 | 0.00 | 0.00 | 0.00 | 58 | 1006.8 |
| 20260509164527 | 28 | 71 | 0.0 | 6.4 | 0.00 | 0.00 | 0.00 | 57 | 1006.7 |
| 20260509163003 | 27 | 329 | 3.2 | 12.9 | 0.00 | 0.00 | 0.00 | 62 | 1006.6 |
| 20260509161535 | 26 | 332 | 1.6 | 16.1 | 0.00 | 0.00 | 0.00 | 64 | 1006.7 |
| 20260509160100 | 26 | 325 | 6.4 | 14.5 | 0.00 | 0.00 | 0.00 | 68 | 1006.6 |
| 20260509154528 | 26 | 324 | 0.0 | 9.7 | 0.00 | 0.00 | 0.00 | 70 | 1006.6 |
| 20260509153059 | 25 | 234 | 0.0 | 9.7 | 0.00 | 0.00 | 0.00 | 68 | 1006.6 |
| 20260509151526 | 24 | 320 | 3.2 | 6.4 | 0.00 | 0.00 | 0.00 | 71 | 1006.6 |
| 20260509150054 | 23 | 329 | 3.2 | 12.9 | 0.00 | 0.00 | 0.00 | 73 | 1006.7 |
| 20260509144509 | 22 | 295 | 1.6 | 6.4 | 0.00 | 0.00 | 0.00 | 72 | 1006.9 |
| 20260509143028 | 21 | 211 | 1.6 | 4.8 | 0.00 | 0.00 | 0.00 | 71 | 1007.1 |
| 20260509141501 | 21 | 272 | 0.0 | 4.8 | 0.00 | 0.00 | 0.00 | 63 | 1007.1 |
| 20260509140029 | 20 | 269 | 1.6 | 4.8 | 0.00 | 0.00 | 0.00 | 59 | 1007.1 |
| 20260509134548 | 19 | 272 | 0.0 | 6.4 | 0.00 | 0.00 | 0.00 | 36 | 1007.1 |
| 20260509133003 | 18 | 234 | 0.0 | 4.8 | 0.00 | 0.00 | 0.00 | 6 | 1007.0 |
| 20260509131523 | 17 | 217 | 0.0 | 3.2 | 0.00 | 0.00 | 0.00 | 1 | 1007.0 |
| 20260509130044 | 16 | 121 | 0.0 | 1.6 | 0.00 | 0.00 | 0.00 | 1 | 1006.9 |
| 20260509124511 | 15 | 121 | 0.0 | 3.2 | 0.00 | 0.00 | 0.00 | 1 | 1006.8 |
| 20260509123033 | 14 | 121 | 0.0 | 1.6 | 0.00 | 0.00 | 0.00 | 1 | 1006.6 |
| 20260509121556 | 14 | 121 | 0.0 | 3.2 | 0.00 | 0.00 | 0.00 | 4 | 1006.4 |
| 20260509120019 | 13 | 121 | 0.0 | 1.6 | 0.00 | 0.00 | 0.00 | 12 | 1006.3 |
| 20260509114538 | 13 | 121 | 0.0 | 0.0 | 0.00 | 0.00 | 0.00 | 18 | 1006.0 |
| 20260509113119 | 13 | 121 | 0.0 | 0.0 | 0.00 | 0.00 | 0.00 | 21 | 1005.7 |
| 20260509111532 | 14 | 241 | 0.0 | 0.0 | 0.00 | 0.00 | 0.00 | 24 | 1005.6 |
| 20260509110033 | 14 | 241 | 0.0 | 0.0 | 0.00 | 0.00 | 0.00 | 25 | 1005.4 |
| 20260509104516 | 14 | 241 | 0.0 | 0.0 | 0.00 | 0.00 | 0.00 | 29 | 1005.1 |
| 20260509103023 | 15 | 241 | 0.0 | 0.0 | 0.00 | 0.00 | 0.00 | 25 | 1005.1 |
| 20260509101548 | 15 | 241 | 0.0 | 0.0 | 0.00 | 0.00 | 0.00 | 27 | 1005.0 |
| 20260509100032 | 15 | 241 | 0.0 | 0.0 | 0.00 | 0.00 | 0.00 | 19 | 1005.0 |